Location: Kellogg
(38.0159°N, 90.0546°W)
Time: 08:11:53
(UTC+00:00)

Altair - Pass Details

Date: 22 September 2024
Orbit: 1501 x 1682 km, 47.2° (Epoch: 07 October)

Event Time Altitude Azimuth Distance (km) Brightness Sun altitude
Rises 10:48:07 0° 293° (WNW) 4,900 - -12.7°
Exits shadow 10:49:57 - 296° (WNW) 4,350 9.4 -12.3°
Reaches altitude 10° 10:51:22 10° 298° (WNW) 3,926 9.2 -12.0°
Maximum altitude 11:01:21 59° 17° (NNE) 1,902 8.1 -10.1°
Drops below altitude 10° 11:11:20 10° 95° (E) 3,926 11.2 -8.1°
Sets 11:14:34 0° 100° (E) 4,899 11.9 -7.5°
